Погода в Олешне

Украина / Сумская область     50°24′34″N   34°44′41″E
темп.,
°C
ветер,
м/с
пор.,
м/с
влажн.,
%
обл.,
%
осадки,
мм/ч
давл.,
гПа
погр.,
м
8 марта, пн
пн823:000зюз8158495 0.0 1009847
02:00−1зюз7139398 0.3 1008685
05:00−1зюз71294100 0.4 1008670
08:00−1з81289100 0.8 1008844
11:00+1зсз697099 0.3 10091233
14:00+1зсз796593 0.4 10091336
17:00−2зсз587274 0.1 1010783
20:00−3з388137 0.1 1012379
9 марта, вт
вт923:00−3з36830 0.0 1012320
02:00−4сз368539 0.0 1013294
05:00−5сз598661 0.0 1014556
08:00−7сз588158 0.0 1016501
11:00−5ссз577198 0.0 1018780
14:00−4ссз676799 0.0 1020925
17:00−6ссз5771100 0.0 1021885
20:00−7ссз477296 0.1 1023763
10 марта, ср
ср1023:00−7ссз35768 0.0 1024515
02:00−8ссз34804 0.0 1025295
05:00−9ссз238227 0.0 1026192
08:00−8с117459 0.0 1027267
11:00−5сз115699 0.0 1026541
14:00−3зсз114694 0.0 1026772
17:00−4ссз114738 0.0 1024629
20:00−4с126019 0.0 1025168
11 марта, чт
чт1123:00−5ссв12680 0.0 102677
02:00−6ссв22731 0.0 102661
05:00−6св227352 0.0 102689
08:00−5всв226662 0.0 1027258
11:00−3юв224856 0.0 1028821
14:00−1ю223747 0.0 10271266
17:00−1ю12440 0.0 102675
20:00−3юв37500 0.0 1027244
12 марта, пт
пт1223:00−3ююв4105321 0.0 1026448
02:00−3ююв7125461 0.0 1025621
05:00−3ююв71358100 0.0 1023653
08:00−2ю101657100 0.0 10211095
11:00−2ю121864100 0.1 10191212
14:00−2ю121890100 2.0 10161244
17:00−1ю111894100 3.0 10131113
20:00−1ю101796100 5.6 1012731